Theta_e
313 315 316 319 314 314 318 320 322 319 315 320 322 329 323 320 321 322 323 323 323 323 323 323 323 323 323 319 320 321 318 320 327 320 319 319 320 321 319 326 323 327 326 321
313 315 317 319 314 314 319 322 325 315 316 329 339 324 323 322 321 321 322 323 323 324 324 324 323 323 320 320 321 321 320 325 327 322 323 321 319 320 318 321 320 320 326 322
311 314 318 319 315 319 325 325 328 319 321 327 325 325 323 323 322 322 323 323 322 323 324 323 324 323 321 320 318 315 318 320 320 323 319 317 318 317 317 317 324 322 322 319
309 313 317 318 319 318 322 326 324 319 332 328 324 323 323 323 322 322 322 322 322 323 324 324 323 323 320 319 315 319 320 322 320 318 317 316 316 316 317 317 318 318 319 317
308 310 313 318 319 321 320 325 324 323 324 322 323 321 323 323 322 322 321 322 322 323 324 321 322 320 319 320 319 320 319 325 319 320 317 316 317 316 316 316 316 317 317 317
307 309 312 315 317 317 322 321 321 324 323 324 326 326 323 323 322 322 321 322 323 324 321 320 320 319 319 318 320 322 320 322 320 323 318 318 322 320 317 317 317 317 319 317
308 308 310 314 315 317 322 322 322 324 330 329 326 324 322 322 322 321 320 320 323 320 318 317 318 319 319 319 319 320 315 318 320 321 318 325 319 316 317 316 316 316 316 317
308 308 309 313 315 315 316 317 323 324 320 327 324 322 321 321 320 321 321 321 320 319 320 324 318 318 314 316 317 319 319 322 316 322 319 317 317 317 316 316 316 316 318 316
308 307 308 310 315 315 316 316 319 323 324 328 321 321 321 326 326 323 320 321 320 320 324 321 319 325 320 320 317 316 317 317 322 317 318 318 319 316 315 315 318 317 316 314
308 307 308 309 314 316 317 315 317 322 323 322 322 323 324 322 323 323 321 321 321 321 320 315 329 324 318 320 320 316 315 316 318 318 317 317 315 315 314 317 319 316 314 312
308 308 307 309 312 316 318 318 316 322 322 321 322 321 322 321 321 326 321 322 323 324 316 320 324 321 322 321 318 317 317 318 315 318 317 318 315 315 316 317 315 314 312 311
307 308 308 308 310 314 317 323 317 318 322 321 319 320 320 320 320 322 321 320 322 322 324 321 323 316 314 321 321 316 320 321 322 319 319 316 315 315 315 315 314 312 310 309
307 308 308 308 309 311 316 322 317 318 320 321 317 318 317 318 319 321 321 321 320 320 321 315 313 313 315 315 321 319 316 315 322 319 317 315 315 314 314 313 312 311 310 308
309 308 308 308 309 310 313 318 317 322 318 318 323 320 317 315 315 317 319 320 320 321 318 312 309 312 318 317 318 321 319 316 317 317 316 315 315 314 313 312 310 310 309 308
310 310 309 308 308 309 312 314 316 319 322 318 323 319 319 315 316 319 318 318 317 320 316 308 313 319 321 319 317 320 316 315 318 319 316 316 315 312 310 310 310 309 308 304
311 311 310 310 309 310 312 320 315 316 318 319 319 320 318 317 319 321 320 319 319 320 319 314 317 318 318 315 316 315 314 313 314 314 315 314 313 311 310 308 307 305 303 302
310 311 311 312 311 313 320 319 320 316 316 317 318 320 316 317 319 320 320 319 319 319 319 318 317 318 317 311 316 314 313 312 313 313 313 312 310 310 309 305 304 302 301 299
310 310 311 312 312 314 316 317 315 317 318 318 317 316 314 315 316 316 316 318 317 318 318 315 315 316 316 317 314 314 313 313 312 310 310 309 309 308 305 303 301 299 298 297
310 310 311 311 312 313 315 315 314 316 317 319 313 312 313 314 312 312 311 312 313 313 314 314 314 313 314 314 313 313 313 312 310 309 308 307 305 303 302 300 298 297 297 296
310 311 312 312 313 312 312 314 314 315 316 315 311 314 315 313 309 308 308 308 311 312 309 309 307 311 312 312 312 312 311 310 309 308 306 304 302 300 298 297 297 297 296 292
311 311 312 311 313 313 314 313 313 312 311 311 311 311 310 310 309 308 308 307 308 311 310 310 309 309 309 309 310 309 308 308 307 306 305 302 298 297 297 296 296 294 292 292
308 309 309 309 309 308 310 308 307 307 313 307 306 309 310 307 309 308 304 307 303 310 305 306 310 310 310 309 307 307 306 305 302 300 298 297 296 296 295 294 291 291 292 292
306 306 306 304 301 304 306 309 306 307 303 303 303 302 304 305 305 302 302 305 307 303 307 308 309 308 307 307 306 305 303 299 297 297 296 295 294 292 291 290 291 292 292 292
303 300 303 302 304 303 303 303 301 301 302 302 303 301 302 301 302 300 305 303 304 307 308 308 308 305 306 305 304 302 298 297 295 294 294 294 293 291 290 290 292 292 292 292
300 301 304 303 298 299 299 299 299 300 301 302 301 301 302 300 302 301 303 303 306 306 308 305 303 304 303 302 301 301 298 296 294 294 293 291 290 290 291 291 292 292 292 292
300 299 301 299 300 300 299 300 300 300 300 301 301 301 304 304 304 303 305 306 306 307 305 302 299 298 298 297 296 295 295 295 294 293 291 291 291 291 291 291 291 292 292 291
299 298 298 299 300 300 300 300 300 301 301 301 302 304 302 300 304 304 304 305 304 301 301 300 298 296 295 294 294 293 293 294 294 292 291 291 291 291 292 292 292 293 293 293
Wind_Speed
4 3 8 11 17 23 20 14 5 13 14 9 13 8 2 2 7 1 4 5 4 4 4 2 5 8 8 5 5 4 4 3 2 8 5 3 3 5 3 1 1 2 1 6
6 4 9 13 20 25 16 12 7 16 17 4 2 3 6 3 7 7 4 2 1 2 5 3 7 8 5 5 8 4 5 2 2 7 5 3 3 3 1 6 2 3 2 3
7 5 8 15 20 21 13 7 3 7 10 11 11 7 7 5 3 4 2 5 4 5 5 5 6 9 4 5 7 3 4 1 2 2 5 7 7 8 8 8 3 5 6 14
6 6 7 13 18 18 9 5 5 11 5 7 6 10 9 10 6 5 6 5 5 7 2 6 5 11 8 4 2 1 3 3 6 8 9 9 10 11 11 12 10 8 10 13
7 6 6 9 14 15 11 4 3 5 9 14 8 4 6 10 8 8 7 5 7 7 6 4 6 6 4 3 3 2 6 2 3 3 4 9 12 14 14 15 14 9 12 13
6 6 6 7 10 13 7 5 2 4 2 5 6 5 8 9 10 4 8 8 8 12 13 15 13 14 9 7 3 4 3 2 1 2 9 9 2 4 5 4 6 9 5 8
7 6 6 6 7 9 4 6 4 4 1 3 6 10 9 11 9 6 11 11 9 11 17 16 15 15 11 8 7 7 5 2 2 2 5 3 3 12 12 9 7 7 7 8
8 6 6 7 6 6 5 7 5 4 2 8 10 10 9 14 9 13 16 11 14 15 4 3 3 2 4 4 5 7 5 2 3 1 3 9 11 4 6 5 10 10 7 8
9 7 6 7 7 6 5 6 7 3 8 4 9 10 15 8 8 6 6 8 8 4 3 2 3 2 2 5 6 8 5 5 1 2 2 3 2 7 6 9 8 8 10 11
11 9 7 7 7 7 7 6 7 5 4 4 5 10 11 12 10 5 9 6 4 2 2 3 2 3 2 5 6 4 2 1 3 4 4 6 9 5 4 3 2 5 5 10
13 11 9 8 7 7 8 6 5 5 4 4 5 7 13 8 11 5 13 5 2 3 3 3 2 2 4 2 3 6 7 7 4 3 3 6 2 2 1 5 10 2 3 5
14 12 11 10 9 8 6 1 4 6 5 8 11 11 11 9 5 10 16 4 8 8 3 2 1 2 2 2 3 8 4 6 4 9 5 10 3 7 10 10 7 3 8 7
14 13 12 11 10 10 10 6 7 5 5 5 6 4 10 11 11 11 6 7 5 10 7 7 3 3 4 4 5 2 3 9 3 2 7 12 10 3 6 6 2 5 6 8
15 14 13 12 11 10 10 7 9 6 4 4 4 7 8 11 11 11 10 9 10 12 7 5 3 3 12 5 6 3 6 6 6 9 15 15 3 5 7 1 7 9 7 9
14 13 13 13 12 11 11 10 10 10 2 4 2 6 11 11 9 7 9 10 11 10 5 3 4 4 1 4 1 4 10 10 7 8 8 3 3 4 4 7 6 6 5 6
12 11 11 12 12 10 7 2 7 12 9 2 2 3 2 9 9 9 8 11 10 10 6 5 5 8 7 3 3 10 17 16 11 14 0 3 2 7 6 3 1 1 2 7
12 10 10 11 12 13 7 4 6 12 11 3 1 3 3 9 7 8 8 10 8 7 4 6 4 4 9 4 5 11 13 14 14 1 3 3 6 4 5 3 1 3 5 9
12 11 8 8 11 13 10 8 3 9 8 6 3 2 2 10 4 3 4 4 4 3 4 3 4 5 6 4 10 12 14 15 6 5 2 5 2 6 3 2 2 5 9 12
16 12 9 8 7 7 12 10 4 11 7 4 5 6 4 9 5 4 4 4 1 2 2 5 3 3 6 7 10 11 12 8 9 5 5 6 5 3 1 2 5 8 11 12
19 14 7 6 6 10 11 7 4 4 5 5 6 7 3 8 7 3 5 2 1 2 2 2 2 5 16 16 9 5 10 9 7 9 11 7 6 2 3 5 7 9 11 19
22 11 8 8 20 14 9 6 6 6 3 7 9 15 5 7 4 3 5 3 2 3 3 3 3 3 9 20 14 8 8 8 8 10 9 7 3 2 5 8 10 16 18 19
11 7 9 10 4 3 4 5 4 4 5 6 9 6 7 7 5 4 6 3 2 5 8 2 3 3 8 15 11 9 10 12 11 9 7 3 1 4 10 15 20 20 19 22
11 3 2 1 0 3 3 5 3 3 4 6 6 4 6 5 4 5 2 5 5 2 3 3 1 8 9 12 14 12 12 13 11 6 2 3 8 14 18 21 20 19 21 24
3 2 3 1 2 1 1 2 3 2 2 13 16 7 4 4 3 4 4 1 2 3 3 3 4 8 10 12 12 12 9 9 6 3 7 13 19 23 22 20 19 20 25 26
3 2 2 2 1 2 3 2 4 6 9 8 9 6 4 2 3 1 3 4 3 3 1 2 9 11 12 12 10 12 9 6 6 10 16 22 23 23 23 20 20 23 25 24
1 2 2 2 2 4 4 7 8 7 9 7 5 2 2 2 2 2 2 2 1 2 3 5 7 10 7 6 6 5 6 10 13 18 23 21 21 21 22 24 25 24 20 20
2 1 4 4 5 3 3 4 5 3 4 2 1 2 4 1 0 0 1 0 2 4 6 7 6 6 4 1 4 10 13 16 20 23 22 22 21 22 24 25 21 16 18 21
Wind_Direction
155 142 167 172 170 162 162 181 217 172 175 188 225 226 126 110 166 183 58 22 121 128 135 90 76 101 55 50 341 54 35 78 308 68 74 12 4 19 7 349 29 105 19 278
156 136 159 165 165 165 178 199 135 163 170 208 239 121 122 175 170 175 166 104 48 84 124 99 112 110 70 33 33 34 351 50 255 153 154 140 308 56 58 95 100 251 182 262
162 140 155 167 171 174 195 219 121 156 200 266 194 184 168 136 42 112 115 112 158 125 142 98 134 119 101 60 69 16 309 91 97 353 323 336 303 276 260 254 189 264 276 289
170 153 147 174 183 196 219 251 177 172 187 253 230 185 182 161 166 181 172 167 169 144 120 125 134 118 135 131 139 123 20 42 6 321 314 304 299 291 285 272 255 242 261 266
177 170 149 156 185 194 206 292 162 184 161 206 222 120 207 188 169 166 173 190 180 141 143 190 153 140 166 122 171 72 43 93 354 264 347 348 307 293 291 282 272 290 315 305
180 176 164 150 161 179 220 244 179 173 312 192 206 163 230 197 110 313 174 158 107 71 71 71 66 62 60 80 132 105 54 140 5 287 346 314 319 262 275 329 310 316 298 289
186 177 172 166 164 173 158 183 164 97 167 192 189 207 207 143 166 171 115 123 105 113 110 89 69 62 52 89 74 106 119 71 67 301 311 10 40 319 292 316 281 284 318 44
191 182 174 168 173 180 202 171 144 129 142 203 203 207 179 117 129 111 86 65 125 142 125 116 102 48 44 336 62 106 123 151 86 336 305 296 302 56 30 7 308 320 33 32
193 190 179 172 171 173 173 170 165 134 126 217 196 176 140 144 112 84 104 107 127 148 86 94 152 162 174 149 138 46 61 81 292 126 241 255 333 39 35 321 277 57 29 10
194 193 187 182 175 175 174 152 149 127 107 108 221 152 158 161 177 127 147 153 129 171 86 98 191 172 292 173 176 183 92 157 212 202 245 278 270 325 342 239 35 14 12 349
196 197 194 192 186 178 174 171 154 144 92 129 78 140 178 173 173 146 146 128 100 79 86 161 179 144 226 157 175 167 169 168 197 197 234 255 339 332 202 8 338 63 337 314
200 200 200 198 195 189 167 134 165 155 154 164 169 162 169 176 131 155 169 174 148 167 133 137 80 165 22 106 217 204 212 192 186 184 212 226 5 222 262 275 258 247 292 302
205 208 206 203 203 198 190 180 171 141 121 114 130 165 187 188 159 159 158 206 178 158 146 144 159 172 158 176 224 267 276 272 186 202 255 276 297 305 135 169 192 299 269 282
205 211 213 210 210 208 204 178 191 156 162 129 175 203 201 200 193 193 186 198 182 170 161 127 151 172 199 195 243 240 230 283 279 286 293 297 34 114 145 292 298 272 275 268
205 210 215 216 215 213 213 219 208 196 171 165 145 176 231 205 187 182 185 187 179 156 140 129 204 209 268 129 83 242 240 259 253 263 279 269 144 156 279 279 279 271 261 309
204 207 214 216 212 205 194 202 249 219 194 183 147 202 196 203 193 188 185 186 193 199 173 195 237 213 207 156 236 244 251 262 283 312 261 150 193 288 273 234 353 323 311 298
208 208 210 208 201 185 175 189 215 208 196 187 86 182 185 176 181 188 210 211 220 227 226 201 212 230 208 151 228 243 255 264 263 157 157 231 275 240 180 163 231 276 297 319
200 205 204 213 200 199 208 216 243 188 179 200 163 154 209 173 185 165 168 175 200 235 253 135 203 230 228 252 250 258 256 255 177 151 207 242 249 184 177 188 290 317 313 325
195 198 202 212 207 204 208 215 227 205 195 230 163 159 196 166 141 153 149 168 177 248 239 191 218 166 219 228 255 265 255 169 163 187 226 180 173 161 192 276 299 311 320 321
192 190 190 201 185 187 203 224 232 224 226 222 179 172 162 162 165 118 124 164 248 237 219 186 243 253 247 245 268 255 165 161 179 192 171 164 151 216 275 299 305 308 298 308
186 186 206 184 157 160 177 180 190 197 244 212 185 184 143 159 139 150 187 164 170 239 171 217 233 252 235 237 213 170 166 178 177 162 164 157 178 262 300 298 291 295 304 310
188 166 144 152 186 184 180 177 179 198 216 163 148 128 143 136 140 134 173 166 150 241 142 204 248 224 106 141 154 164 155 141 133 136 139 141 277 298 291 302 306 307 305 309
137 148 117 83 123 203 207 187 221 210 163 149 143 92 121 124 141 104 151 185 209 124 188 235 296 107 133 142 151 148 143 146 139 132 137 252 302 310 312 310 307 302 302 310
100 105 116 311 153 6 32 323 341 24 173 149 135 105 126 121 110 137 178 142 177 214 225 211 159 126 126 135 148 154 157 181 191 257 301 311 314 313 310 306 304 302 306 310
82 59 73 65 86 42 10 43 83 86 118 115 97 84 107 107 123 172 127 179 213 226 196 58 88 129 144 141 146 171 186 221 275 301 314 315 310 307 306 306 302 304 307 308
67 82 133 105 85 28 41 61 71 100 83 68 56 81 97 88 77 171 195 199 221 92 62 112 124 120 126 138 166 208 249 276 290 301 309 307 307 306 303 302 304 306 305 306
85 85 144 132 106 118 78 69 66 98 61 55 13 44 51 137 197 185 171 353 62 153 126 130 148 138 132 194 300 299 293 287 290 298 305 307 306 302 300 304 313 311 309 311